Regional Weather Roundup
Issued by NWS Upton, NY

Current Version | Previous Version | Graphics & Text | Print | Product List | Glossary Off
Versions: 1 2 3 4 5 6 7 8 9 10 11 12 13 14 15 16 17 18 19 20 21 22 23 24 25 26 27

000
ASUS41 KOKX 021504
RWROKX

REGIONAL WEATHER ROUNDUP
NATIONAL WEATHER SERVICE NEW YORK NY
1100 AM EDT MON MAY 02 2016

NOTE: "FAIR" INDICATES FEW OR NO CLOUDS BELOW 12,000 FEET WITH NO
SIGNIFICANT WEATHER AND/OR OBSTRUCTIONS TO VISIBILITY.

NYZ071-072-176-178-NJZ106-104-021600-
NEW YORK CITY METRO AREA


CITY           SKY/WX    TMP DP  RH WIND       PRES   REMARKS
CENTRAL PARK   CLOUDY    52  47  83 SE6       29.97F HAZE
LAGUARDIA APRT CLOUDY    52  47  83 SE7       29.96F HAZE
KENNEDY INTL   CLOUDY    51  48  89 SE8       29.97F
NEWARK/LIBERTY CLOUDY    52  48  86 VRB7      29.96F FOG
BRNX BOT. GARD   N/A     50  46  87 SE3       29.94F
TETERBORO      CLOUDY    50  46  86 SE3       29.93F
$$

NYZ177-179-078>081-021600-
LONG ISLAND NEW YORK

CITY           SKY/WX    TMP DP  RH WIND       PRES   REMARKS
FARMINGDALE    CLOUDY    51  49  92 S5        29.97F
ISLIP          CLOUDY    52  48  86 S6        29.98F
SHIRLEY        CLOUDY    53  49  86 S9        29.99F
RIVERHEAD        N/A     54  52  94 NW1       29.96F
WESTHAMPTON    CLOUDY    50  50 100 SE10      29.98F
EAST HAMPTON   CLOUDY    50  48  93 E5        29.96F
MONTAUK POINT    N/A     50  47  89 NE7       29.96F
$$

NYZ052-065-067-021600-
HUDSON VALLEY

CITY           SKY/WX    TMP DP  RH WIND       PRES   REMARKS
WHITE PLAINS   LGT RAIN  47  46  97 E5        29.96F VSB 3/4
NEWBURGH       LGT RAIN  45  45 100 VRB6      29.97F FOG
MONTGOMERY     CLOUDY    48  45  89 N5        29.94F FOG
POUGHKEEPSIE   LGT RAIN  48  45  89 E5        29.97F FOG
ALBANY         RAIN      45  43  93 SE6       29.93F FOG
$$

NJZ001-105-106-008-010-013-015-019>022-104-021600-
NEW JERSEY

CITY           SKY/WX    TMP DP  RH WIND       PRES   REMARKS
NEWARK/LIBERTY CLOUDY    52  48  86 VRB7      29.96F FOG
TETERBORO      CLOUDY    50  46  86 SE3       29.93F
CALDWELL       LGT RAIN  48  46  93 CALM      29.97F FOG
MORRISTOWN     FOG       48  46  93 CALM      29.98F VSB 1
SOMERVILLE     FOG       48  47  96 VRB3      29.95F VSB 1
SUSSEX         CLOUDY    48  44  86 CALM      29.96F
ANDOVER          N/A     48  45  89 CALM      29.95F
TRENTON        CLOUDY    49  47  93 SE3       29.97S FOG
MILLVILLE      CLOUDY    54  53  97 SE6       29.96F FOG
ATLANTIC CITY  CLOUDY    53  52  96 SE9       29.96F FOG
WRIGHTSTOWN    CLOUDY    51  49  93 SE5       29.95S
TOMS RIVER     CLOUDY    52  46  82 SE7       29.98F
BELMAR         CLOUDY    50  49  96 SE10      29.97F
$$

PAZ047>061-062-071-021600-
EASTERN PENNSYLVANIA

CITY           SKY/WX    TMP DP  RH WIND       PRES   REMARKS
PHILADELPHIA   CLOUDY    53  48  83 E5        29.96F
ALLENTOWN      CLOUDY    50  45  83 SE3       29.97R
SCRANTON       CLOUDY    51  47  86 CALM      29.91S
$$

CTZ002-004>006-009-010-012-RIZ004-006-007-MAZ004-011-015-021600-
SOUTHERN NEW ENGLAND
 IN CT

CITY           SKY/WX    TMP DP  RH WIND       PRES   REMARKS
BRADLEY INTL   TSTM      45  43  93 N8        29.94F FOG
HARTFORD       LGT RAIN  48  45  89 VRB3      29.95F
DANBURY        LGT RAIN  48  46  93 SW5       30.00R FOG
WTRBRY/OXFORD  RAIN      45  43  93 NW12G17   30.05R VSB 1/2
BRIDGEPORT     LGT RAIN  49  46  90 SW9       30.01R
MERIDEN        LGT RAIN  47  44  90 VRB5      29.99R
NEW HAVEN      CLOUDY    49  46  90 S5        29.97R FOG
CHESTER        CLOUDY    50  48  93 CALM      29.94F FOG
GROTON         CLOUDY    52  52 100 S6        29.94F
WILLIMANTIC    CLOUDY    51  46  83 NE6       29.95F

 IN RI

CITY           SKY/WX    TMP DP  RH WIND       PRES   REMARKS
PROVIDENCE     CLOUDY    50  48  93 NE9       29.97F
BLOCK ISLAND   LGT RAIN  49  49 100 NE9       29.96F VSB 1/2
WESTERLY       CLOUDY    54  48  80 VRB5      29.96F

 IN MA

CITY           SKY/WX    TMP DP  RH WIND       PRES   REMARKS
BOSTON         FOG       48  47  96 NE10      30.01F VSB 1
WORCESTER      RAIN      43  42  97 NE9       29.96F VSB<1/4
WESTFIELD      HVY RAIN  44  42  93 N8        29.95F FOG
PROVINCETOWN   CLOUDY    50  48  93 SE15G21   29.98F
NANTUCKET      CLOUDY    54  51  90 E9        29.96S FOG
$$

ANZ330-335-338-340-345-350-353-355-021600-
COASTAL MARINE OBSERVATIONS


STATION/POSITION TIME  SKY/WX   TEMP    WIND        PRES    VSBY  WAVE
                                AIR SEA DIR/SP/G                  HT/PER
                 (UTC)          (F)     (DEG/KT/KT) (MB)    (MI)  (FT/S)
NY HARB ENTRANCE 1350            48 50  100/  6/  6 1016.2          4/11
20S FIRE ISLAND  1350            47 48   90/  6/  8 1016.1          4/11
GREAT SOUTH BAY  1400            50 55  150/  4/  6   N/A
23 SSW MONTAUK P 1450            47 47   60/  6/  8 1014.4          5/ 9
15 E BARNEGAT LI 1422               51                N/A           5/11
HUDSON CANYON    1350            48 48              1015.5          5/ 9
KINGS POINT      1400            49 53              1016.1
EXECUTION ROCKS  NOT AVBL
CENTRAL LI SOUND 1400            47      70/ 10/ 12   N/A           0
EASTERN LI SOUND 1400            49 48   20/  2/  4   N/A
ROBBINS REEF     1412            48     150/  8/ 10 1015.0
$$


>>>>>>>>>>>>>>>>>>>>>>>>>>>> KEY <<<<<<<<<<<<<<<<<<<<<<<<<<<
>                                                          <
>     SKY/WX - SKY CONDITION/PRESENT WEATHER               <
>     TMP    - TEMPERATURE IN FAHRENHEIT                   <
>     DP     - DEWPOINT IN FAHRENHEIT                      <
>     RH     - RELATIVE HUMIDITY IN PERCENT                <
>     WIND   - DIRECTION AND SPEED IN MPH                  <
>     PRES   - MEAN SEA LEVEL PRESSURE IN INCHES OF HG     <
>     WCI    - WIND CHILL INDEX                            <
>     VSB    - VISIBILITY IN MILES                         <
>     HX     - HEAT INDEX                                  <
>     TC     - TEMPERATURE IN CELSIUS                      <
>     VRB    - VARIABLE WIND DIRECTION                     <
>                                                          <
>>>>>>>>>>>>>>>>>>>>>>>>>>>> KEY <<<<<<<<<<<<<<<<<<<<<<<<<<<






USA.gov is the U.S. government's official web portal to all federal, state and local government web resources and services.